Retour au catalogue

STARLINK-36097

ActifCommunicationsVLEO
NORAD 67091·PAYLOAD·🇺🇸 United States

Lancé Dec 14, 2025 depuis Vandenberg Space Force Base

Loading…

Prochains Passages (prochaines 24 heures)

TLE

FraisSource: CelesTrak SupGP

Époque: Sep 15, 2026, 03:06 UTC

1 67091C 25298S   26258.12965278  .00023931  00000+0  30561-3 0  2585
2 67091  69.9830 224.2937 0007402 206.0442  55.1071 15.59029733    14

Suivez STARLINK-36097 en temps réel avec AllMySat

Download on the App Store